Regional Weather Roundup
Issued by NWS

Home | Current Version | Previous Version | Text Only | Print | Product List | Glossary Off
Versions: 1 2 3 4 5 6 7 8 9 10 11 12 13 14 15 16 17 18 19 20 21 22 23 24 25 26 27 28 29 30 31 32 33 34 35 36 37 38 39 40 41 42 43 44 45 46 47 48 49 50

000
ASUS43 KFSD 292002
RWRSD

WEATHER ROUNDUP FOR SOUTH DAKOTA
NATIONAL WEATHER SERVICE SIOUX FALLS SD
300 PM CDT TUE JUL 29 2014

NOTE: "FAIR" INDICATES FEW OR NO CLOUDS BELOW 12,000 FEET WITH NO
SIGNIFICANT WEATHER AND/OR OBSTRUCTIONS TO VISIBILITY.


SDZ001>005-009-010-012>017-292100-
NORTHWEST AND NORTH CENTRAL SOUTH DAKOTA

CITY           SKY/WX    TMP DP  RH WIND       PRES   REMARKS
BUFFALO          N/A     79  50  36 VRB3      30.16F
FAITH            N/A     80  52  37 S8        30.21F
MOBRIDGE       MOSUNNY   78  53  41 N7        30.17F
$$

SDZ012>016-024>037-041>051-057-063-072>074-292100-
SOUTHWEST AND SOUTH CENTRAL SOUTH DAKOTA

CITY           SKY/WX    TMP DP  RH WIND       PRES   REMARKS
RAPID CTY ARPT CLOUDY    69  59  70 SE8       30.26F
PIERRE         SUNNY     81  51  35 NE8       30.17F
CUSTER         CLOUDY    62  51  67 E7        30.35S
ELLSWORTH AFB  CLOUDY    70  58  66 S12       30.25F
PHILIP         CLOUDY    78  48  34 S7        30.21S
PINE RIDGE     LGT RAIN  67  61  81 NE5       30.26S
WINNER         FAIR      81  47  30 N6        30.20S
$$

SDZ004>011-016>023-039-040-292100-
NORTHEAST SOUTH DAKOTA

CITY           SKY/WX    TMP DP  RH WIND       PRES   REMARKS
ABERDEEN       MOSUNNY   75  52  44 NE6       30.17F
WATERTOWN      MOSUNNY   74  51  44 N12       30.19S
SISSETON         N/A     77  53  43 VRB3      30.16S
$$

SDZ017-020-022-023-036>040-048>070-292100-
SOUTHEAST SOUTH DAKOTA

CITY           SKY/WX    TMP DP  RH WIND       PRES   REMARKS
SIOUX FALLS    PTSUNNY   75  53  46 N8        30.19S
HURON          MOSUNNY   77  49  37 VRB3      30.17F
CHAMBERLAIN    PTSUNNY   78  51  38 N8        30.19S
MITCHELL       MOSUNNY   77  54  44 NE5       30.18F
YANKTON        PTSUNNY   73  52  46 N6        30.19F
$$

ABBREVIATIONS USED IN REMARKS
   TC - TEMPERATURE IN CELSIUS
  WCI - WIND CHILL INDEX
   HX - HEAT INDEX
  VSB - VISIBILITY




USA.gov is the U.S. government's official web portal to all federal, state and local government web resources and services.